Latest Weather Observations for Mount Isa

IDQ60801

Issued at 2:02 pm EST Wednesday 28 January 2015 (issued every 30 minutes, with the page automatically refreshed every 10 minutes)

About weather observations | Map of weather stations | Latest weather observations for QLD | Other Formats
Station Details ID: 029127 Name: MOUNT ISA AERO Lat: -20.68 Lon: 139.49 Height: 340.3 m
Data from the previous 72 hours. | See also: Recent months at Mount Isa
Date/Time
EST
Temp
°C
App
Temp
°C
Dew
Point
Rel
Hum
%
Delta-T
°C
Wind Press
QNH
hPa
Press
MSL
hPa
Rain
since 9 am
mm
Dir
 
Spd
km/h
Gust
km/h
Spd
kts
Gust
kts
28/02:00pm 33.0 27.1 -1.9 10 16.8 SSE 19 35 10 19 1005.3 - 0.0
28/01:30pm 32.4 26.1 -1.2 11 16.3 SSE 22 35 12 19 1005.7 - 0.0
28/01:00pm 32.9 25.7 1.0 13 16.0 S 28 33 15 18 1006.1 - 0.0
28/12:30pm 31.4 24.7 -1.2 12 15.6 S 24 35 13 19 1006.5 - 0.0
28/12:00pm 31.7 24.8 0.0 13 15.6 SE 26 35 14 19 1006.7 1004.1 0.0
28/11:30am 30.3 22.9 -0.5 13 14.8 S 28 33 15 18 1007.2 - 0.0
28/10:30am 29.7 22.7 -0.3 14 14.5 S 26 33 14 18 1007.5 - 0.0
28/09:00am 27.3 19.6 -0.3 16 13.1 SSE 30 41 16 22 1008.1 1005.5 0.0
28/08:30am 26.4 19.2 0.9 19 12.3 SSE 28 37 15 20 1007.9 - 0.0
28/08:00am 25.1 18.2 0.4 19 11.7 SSE 26 33 14 18 1007.9 - 0.0
28/07:30am 24.4 17.0 -0.8 19 11.6 S 28 37 15 20 1007.7 - 0.0
28/07:00am 23.8 17.6 -0.5 20 11.2 S 22 32 12 17 1007.5 - 0.0
28/06:30am 23.6 17.6 -1.3 19 11.2 S 20 26 11 14 1007.2 - 0.0
28/06:00am 23.9 18.0 -1.1 19 11.4 S 20 28 11 15 1006.9 1004.3 0.0
28/05:30am 24.2 18.8 -1.2 18 11.6 S 17 19 9 10 1006.8 - 0.0
28/05:00am 24.4 19.5 -0.8 19 11.6 S 15 17 8 9 1006.7 - 0.0
28/04:30am 24.9 19.5 -1.3 17 12.0 S 17 22 9 12 1006.5 - 0.0
28/04:00am 25.3 19.2 -2.0 16 12.3 S 20 28 11 15 1006.3 - 0.0
28/03:30am 25.3 19.5 -1.2 17 12.2 S 19 24 10 13 1006.1 - 0.0
28/03:00am 26.0 19.2 -2.1 15 12.8 S 24 32 13 17 1006.1 1003.5 0.0
28/02:30am 26.3 18.7 -2.3 15 13.0 S 28 35 15 19 1006.3 - 0.0
28/02:00am 26.6 20.2 -2.0 15 13.1 S 22 30 12 16 1006.6 - 0.0
28/01:30am 26.9 21.2 -0.8 16 13.0 S 19 26 10 14 1007.0 - 0.0
28/01:00am 27.0 21.8 -0.1 17 12.9 S 17 22 9 12 1007.2 - 0.0
28/12:30am 27.2 22.4 0.3 17 12.9 S 15 20 8 11 1007.4 - 0.0
 
Date/Time
EST
Temp
°C
App
Temp
°C
Dew
Point
Rel
Hum
%
Delta-T
°C
Wind Press
QNH
hPa
Press
MSL
hPa
Rain
since 9 am
mm
Dir
 
Spd
km/h
Gust
km/h
Spd
kts
Gust
kts
27/11:30pm 27.8 23.5 0.9 17 13.1 S 13 15 7 8 1007.6 - 0.0
27/11:00pm 28.4 23.9 -0.1 15 13.7 S 13 17 7 9 1007.6 - 0.0
27/10:30pm 29.0 24.1 -0.8 14 14.2 S 15 20 8 11 1007.5 - 0.0
27/10:00pm 29.6 23.7 -1.0 13 14.6 S 20 26 11 14 1007.1 - 0.0
27/09:30pm 30.3 24.4 -1.9 12 15.2 S 19 22 10 12 1006.8 - 0.0
27/09:00pm 30.8 25.3 -2.4 11 15.6 S 17 24 9 13 1006.6 1004.0 0.0
27/08:30pm 31.2 25.3 -0.8 12 15.5 S 20 28 11 15 1006.3 - 0.0
27/08:00pm 32.3 26.2 -2.5 10 16.4 S 20 28 11 15 1006.1 - 0.0
27/07:30pm 32.6 26.3 -0.7 12 16.3 SSW 22 30 12 16 1005.7 - 0.0
27/07:00pm 33.5 26.6 -2.4 10 17.1 S 24 32 13 17 1005.4 - 0.0
27/06:30pm 34.3 27.5 -1.5 10 17.4 S 24 30 13 16 1005.2 - 0.0
27/06:00pm 34.7 28.0 -0.8 10 17.6 S 24 37 13 20 1004.8 1002.2 0.0
27/05:30pm 35.0 28.3 -0.9 10 17.7 S 24 32 13 17 1004.4 - 0.0
27/05:00pm 35.2 28.2 -0.8 10 17.8 S 26 41 14 22 1004.5 - 0.0
27/04:30pm 35.5 29.7 0.1 10 17.8 S 20 33 11 18 1004.8 - 0.0
27/04:00pm 35.5 28.9 -0.4 10 17.9 SSW 24 35 13 19 1005.2 - 0.0
27/03:30pm 35.6 28.7 0.3 11 17.8 S 26 35 14 19 1005.5 - 0.0
27/03:00pm 34.8 28.9 -0.5 10 17.6 S 20 32 11 17 1005.8 1003.2 0.0
27/02:30pm 35.2 30.1 1.0 11 17.4 S 17 28 9 15 1006.0 - 0.0
27/02:00pm 34.7 27.7 -0.4 10 17.5 S 26 35 14 19 1006.4 - 0.0
27/01:30pm 34.8 28.7 0.3 11 17.4 SSE 22 33 12 18 1006.8 - 0.0
27/01:00pm 34.0 27.4 -0.1 11 17.0 S 24 35 13 19 1007.4 - 0.0
27/12:30pm 33.6 28.5 0.6 12 16.6 SSE 17 30 9 16 1007.8 - 0.0
27/12:00pm 33.4 27.4 0.9 12 16.4 SSE 22 33 12 18 1008.1 1005.5 0.0
27/11:30am 32.7 27.2 0.4 12 16.1 SSE 19 32 10 17 1008.4 - 0.0
27/11:00am 32.2 26.5 0.8 13 15.7 SSE 20 32 11 17 1008.6 - 0.0
27/10:30am 31.4 25.5 1.7 15 15.0 SSE 22 33 12 18 1008.9 - 0.0
27/10:00am 30.8 25.2 1.5 15 14.7 SSE 20 26 11 14 1008.9 - 0.0
27/09:30am 29.7 23.6 0.5 15 14.3 S 22 30 12 16 1008.9 - 0.0
27/09:00am 29.0 23.0 1.2 16 13.7 SSE 22 30 12 16 1009.1 1006.5 0.0
27/08:30am 28.2 22.3 1.7 18 13.1 SSE 22 30 12 16 1009.2 - 0.0
27/08:00am 27.3 22.2 0.9 18 12.8 SSE 17 24 9 13 1008.9 - 0.0
27/07:30am 26.6 21.5 0.9 18 12.4 SSE 17 20 9 11 1008.7 - 0.0
27/07:00am 26.0 21.1 1.9 21 11.8 S 17 20 9 11 1008.3 - 0.0
27/06:30am 25.7 20.4 2.0 21 11.6 S 19 26 10 14 1007.6 - 0.0
27/06:00am 26.0 21.5 1.9 21 11.8 S 15 17 8 9 1007.6 1005.0 0.0
27/05:30am 26.5 21.5 1.5 19 12.2 S 17 22 9 12 1007.5 - 0.0
27/05:00am 27.5 21.0 0.6 17 13.0 S 24 33 13 18 1007.4 - 0.0
27/04:30am 27.4 21.7 0.8 17 12.9 S 20 28 11 15 1007.2 - 0.0
27/04:00am 26.8 22.2 1.8 19 12.2 SSW 15 19 8 10 1007.2 - 0.0
27/03:30am 26.0 23.8 6.1 28 10.5 SSE 7 9 4 5 1007.6 - 0.0
27/03:00am 27.6 23.4 1.6 18 12.8 S 13 17 7 9 1007.4 1004.8 0.0
27/02:30am 27.9 23.3 1.5 18 13.0 S 15 20 8 11 1007.5 - 0.0
27/02:00am 28.3 23.2 0.9 17 13.3 S 17 26 9 14 1007.4 - 0.0
27/01:30am 28.9 22.4 0.6 16 13.8 S 24 32 13 17 1007.6 - 0.0
27/01:00am 29.2 23.2 0.9 16 13.9 S 22 35 12 19 1007.9 - 0.0
27/12:30am 29.4 25.1 1.0 16 14.0 S 13 15 7 8 1008.2 - 0.0
27/12:00am 28.3 24.5 1.6 18 13.2 S 11 13 6 7 1008.5 1005.9 0.0
 
Date/Time
EST
Temp
°C
App
Temp
°C
Dew
Point
Rel
Hum
%
Delta-T
°C
Wind Press
QNH
hPa
Press
MSL
hPa
Rain
since 9 am
mm
Dir
 
Spd
km/h
Gust
km/h
Spd
kts
Gust
kts
26/11:30pm 28.8 24.5 1.2 17 13.6 S 13 15 7 8 1009.0 - 0.0
26/11:00pm 28.4 25.0 3.9 21 12.6 S 11 13 6 7 1009.3 - 0.0
26/10:30pm 29.1 25.8 4.3 20 12.9 S 11 13 6 7 1009.1 - 0.0
26/10:00pm 27.8 25.3 8.3 29 10.8 S 11 11 6 6 1008.9 - 0.0
26/09:30pm 29.9 27.5 8.5 26 12.0 S 11 15 6 8 1008.4 - 0.0
26/09:00pm 31.7 27.4 3.2 16 14.8 S 15 17 8 9 1008.1 1005.5 0.0
26/08:30pm 32.7 28.1 1.7 14 15.8 S 15 20 8 11 1007.6 - 0.0
26/08:00pm 33.5 26.4 1.2 13 16.4 S 28 37 15 20 1007.2 - 0.0
26/07:30pm 34.2 25.9 -0.4 11 17.1 SSW 33 43 18 23 1007.0 - 0.0
26/07:00pm 35.3 28.9 0.8 11 17.6 S 24 35 13 19 1006.4 - 0.0
26/06:30pm 36.2 29.9 3.5 13 17.5 SSW 26 33 14 18 1006.1 - 0.0
26/06:00pm 36.1 30.5 3.3 13 17.5 S 22 30 12 16 1005.8 1003.2 0.0
26/05:30pm 36.9 32.0 4.1 13 17.7 S 19 26 10 14 1005.7 - 0.0
26/05:00pm 36.7 31.6 4.0 13 17.6 S 20 32 11 17 1005.8 - 0.0
26/04:30pm 37.3 32.2 4.3 13 17.9 S 20 32 11 17 1006.0 - 0.0
26/04:00pm 36.7 30.9 4.3 13 17.6 SSW 24 32 13 17 1006.3 - 0.0
26/03:30pm 37.1 32.1 3.4 12 18.0 SSE 19 26 10 14 1006.5 - 0.0
26/03:00pm 37.3 32.4 5.0 13 17.8 SSE 20 39 11 21 1006.7 1004.1 0.0
26/02:30pm 37.5 33.2 5.4 14 17.8 SSE 17 24 9 13 1006.8 - 0.0
26/02:00pm 36.7 32.8 3.5 12 17.8 ESE 13 26 7 14 1007.4 - 0.0
26/01:30pm 36.5 32.6 5.3 14 17.1 ESE 15 22 8 12 1007.9 - 0.0
26/01:00pm 36.5 32.2 5.2 14 17.2 SE 17 26 9 14 1008.4 - 0.0
26/12:30pm 35.7 31.9 5.9 16 16.5 SE 15 22 8 12 1008.8 - 0.0
26/12:00pm 34.7 30.4 5.4 16 16.0 SE 17 20 9 11 1009.3 1006.7 0.0
26/11:30am 34.6 30.1 4.2 15 16.3 ESE 17 24 9 13 1009.7 - 0.0
26/11:00am 34.3 29.7 5.6 16 15.7 E 19 22 10 12 1009.8 - 0.0
26/10:30am 32.8 27.7 6.1 19 14.6 SSE 22 28 12 15 1010.0 - 0.0
26/10:00am 33.6 29.1 7.1 19 14.8 SE 20 28 11 15 1010.0 - 0.0
26/09:30am 32.8 28.3 6.1 19 14.6 SE 19 28 10 15 1010.4 - 0.0
26/09:00am 31.6 28.5 7.2 21 13.5 SSE 13 20 7 11 1010.4 1007.9 0.0
26/08:30am 30.7 28.3 8.5 25 12.5 SSE 11 15 6 8 1010.2 - 0.0
26/08:00am 29.2 27.5 10.0 30 11.0 SSE 9 13 5 7 1010.3 - 0.0
26/07:30am 26.7 27.6 16.5 53 6.4 WSW 7 9 4 5 1010.3 - 0.0
26/07:00am 23.0 25.3 19.5 80 2.3 NNW 6 7 3 4 1010.2 - 0.0
26/06:30am 22.2 25.5 19.1 82 2.0 CALM 0 0 0 0 1009.6 - 0.0
26/06:00am 22.9 26.3 19.3 80 2.3 CALM 0 0 0 0 1009.1 1006.5 0.0
26/05:30am 24.3 27.4 18.7 71 3.6 CALM 0 4 0 2 1008.8 - 0.0
26/05:00am 24.1 25.9 19.5 75 3.0 S 9 11 5 6 1008.5 - 0.0
26/04:30am 24.0 25.8 19.5 76 2.9 S 9 11 5 6 1008.6 - 0.0
26/04:00am 23.6 25.8 20.3 82 2.2 SSE 9 11 5 6 1008.6 - 0.0
26/03:30am 24.0 26.2 19.7 77 2.8 S 7 7 4 4 1008.4 - 0.0
26/03:00am 25.8 27.1 19.2 67 4.3 SW 11 15 6 8 1008.1 1005.5 0.0
26/02:30am 26.2 27.0 19.0 64 4.7 SW 13 17 7 9 1008.2 - 0.0
26/02:00am 26.3 27.5 19.1 64 4.7 WSW 11 17 6 9 1008.4 - 0.0
26/01:30am 26.4 27.2 19.0 63 4.8 SSW 13 15 7 8 1008.3 - 0.0
26/01:00am 26.3 27.6 19.3 65 4.6 SSW 11 15 6 8 1008.5 - 0.0
26/12:30am 25.9 27.4 19.7 68 4.1 SW 11 13 6 7 1008.9 - 0.0
26/12:00am 25.8 27.1 19.4 67 4.2 W 11 13 6 7 1009.4 1006.8 0.0
 
Date/Time
EST
Temp
°C
App
Temp
°C
Dew
Point
Rel
Hum
%
Delta-T
°C
Wind Press
QNH
hPa
Press
MSL
hPa
Rain
since 9 am
mm
Dir
 
Spd
km/h
Gust
km/h
Spd
kts
Gust
kts
25/11:30pm 25.7 28.0 19.8 70 3.9 WNW 7 9 4 5 1009.3 - 0.0
25/11:00pm 25.6 27.0 19.5 69 4.0 NNW 11 17 6 9 1009.5 - 0.0
25/10:30pm 26.5 26.5 19.0 63 4.9 N 17 26 9 14 1009.4 - 0.0
25/10:00pm 27.0 27.3 19.5 63 4.9 N 17 28 9 15 1009.5 - 0.0
25/09:30pm 27.0 25.7 19.0 61 5.2 N 24 32 13 17 1009.2 - 0.0
25/09:00pm 27.6 27.4 19.4 61 5.4 NE 19 30 10 16 1008.6 1006.0 0.0
25/08:30pm 28.4 28.2 19.4 58 5.9 ENE 19 28 10 15 1008.2 - 0.0
25/08:00pm 29.5 29.6 18.3 51 7.3 N 15 19 8 10 1007.2 - 0.0
25/07:30pm 28.7 29.4 19.6 58 6.0 N 15 20 8 11 1006.7 - 0.0
25/07:00pm 28.4 26.3 18.9 56 6.2 NNE 28 43 15 23 1006.4 - 0.0
25/06:30pm 31.7 29.4 18.5 45 8.7 NE 28 39 15 21 1005.9 - 0.0
25/06:00pm 35.4 33.8 17.4 34 11.8 ESE 22 33 12 18 1004.4 1001.8 0.0
25/05:30pm 38.0 36.0 15.4 26 14.5 SSW 20 30 11 16 1004.1 - 0.0
25/05:00pm 37.8 35.7 15.3 26 14.4 S 20 30 11 16 1004.0 - 0.0
25/04:30pm 37.6 38.2 16.8 29 13.6 S 9 13 5 7 1004.5 - 0.0
25/04:00pm 38.6 39.5 17.6 29 13.9 ENE 9 13 5 7 1005.0 - 0.0
25/03:30pm 37.5 38.5 18.7 33 12.6 N 11 15 6 8 1005.8 - 0.0
25/03:00pm 37.3 38.8 19.0 34 12.3 N 9 13 5 7 1006.2 1003.6 0.0
25/02:30pm 38.7 39.9 19.1 32 13.2 NNE 11 17 6 9 1006.6 - 0.0

Other Formats:

Comma delimited format used in spreadsheet applications
http://www.bom.gov.au/fwo/IDQ60801/IDQ60801.94332.axf

JavaScript Object Notation format (JSON) in row-major order
http://www.bom.gov.au/fwo/IDQ60801/IDQ60801.94332.json